TimeMST,TemperatureF,Dew PointF,Humidity,Sea Level PressureIn,VisibilityMPH,Wind Direction,Wind SpeedMPH,Gust SpeedMPH,PrecipitationIn,Events,Conditions,WindDirDegrees,DateUTC
12:05 AM,-0.4,-9999,N/A,29.90,10.0,WNW,3.5,-,N/A,,Overcast,290,2012-12-30 07:05:00
12:25 AM,-0.4,-9999,N/A,29.91,10.0,Calm,Calm,-,N/A,,Overcast,0,2012-12-30 07:25:00
12:45 AM,-0.4,-9999,N/A,29.91,10.0,Calm,Calm,-,N/A,,Overcast,0,2012-12-30 07:45:00
1:05 AM,-0.4,-9999,N/A,29.91,10.0,Calm,Calm,-,N/A,,Overcast,0,2012-12-30 08:05:00
1:25 AM,-0.4,-9999,N/A,29.91,8.0,Calm,Calm,-,N/A,Snow,Light Snow,0,2012-12-30 08:25:00
1:45 AM,-0.4,-9999,N/A,29.91,5.0,Calm,Calm,-,N/A,Snow,Light Snow,0,2012-12-30 08:45:00
2:05 AM,1.4,-9999,N/A,29.92,5.0,Calm,Calm,-,N/A,Snow,Light Snow,0,2012-12-30 09:05:00
2:25 AM,1.4,-9999,N/A,29.92,9.0,Calm,Calm,-,N/A,Snow,Light Snow,0,2012-12-30 09:25:00
2:45 AM,1.4,-9999,N/A,29.92,8.0,Calm,Calm,-,N/A,Snow,Light Snow,0,2012-12-30 09:45:00
3:05 AM,1.4,-9999,N/A,29.93,5.0,Calm,Calm,-,N/A,Snow,Light Snow,0,2012-12-30 10:05:00
3:25 AM,3.2,-9999,N/A,29.93,8.0,Calm,Calm,-,N/A,Snow,Light Snow,0,2012-12-30 10:25:00
3:45 AM,3.2,-9999,N/A,29.93,5.0,Calm,Calm,-,N/A,Snow,Light Snow,0,2012-12-30 10:45:00
4:05 AM,5.0,-9999,N/A,29.93,8.0,Calm,Calm,-,N/A,Snow,Light Snow,0,2012-12-30 11:05:00
4:25 AM,3.2,-9999,N/A,29.93,10.0,Calm,Calm,-,N/A,,Overcast,0,2012-12-30 11:25:00
4:45 AM,3.2,-9999,N/A,29.93,8.0,Calm,Calm,-,N/A,Snow,Light Snow,0,2012-12-30 11:45:00
5:05 AM,3.2,-9999,N/A,29.93,7.0,Calm,Calm,-,N/A,Snow,Light Snow,0,2012-12-30 12:05:00
5:25 AM,1.4,-9999,N/A,29.93,4.0,Calm,Calm,-,N/A,Snow,Light Snow,0,2012-12-30 12:25:00
5:45 AM,1.4,-9999,N/A,29.93,3.0,Calm,Calm,-,N/A,Snow,Light Snow,0,2012-12-30 12:45:00
6:05 AM,-0.4,-9999,N/A,29.94,10.0,Calm,Calm,-,N/A,,Overcast,0,2012-12-30 13:05:00
6:25 AM,-2.2,-9999,N/A,29.95,10.0,Calm,Calm,-,N/A,,Overcast,0,2012-12-30 13:25:00
6:45 AM,-0.4,-9999,N/A,29.95,9.0,Calm,Calm,-,N/A,Snow,Light Snow,0,2012-12-30 13:45:00
7:05 AM,-0.4,-9999,N/A,29.96,10.0,Calm,Calm,-,N/A,Snow,Light Snow,0,2012-12-30 14:05:00
7:25 AM,1.4,-9999,N/A,29.95,5.0,Calm,Calm,-,N/A,Snow,Light Snow,0,2012-12-30 14:25:00
7:45 AM,3.2,-9999,N/A,29.95,2.5,Calm,Calm,-,N/A,Snow,Light Snow,0,2012-12-30 14:45:00
8:05 AM,5.0,-9999,N/A,29.96,2.5,Calm,Calm,-,N/A,Snow,Light Snow,0,2012-12-30 15:05:00
8:25 AM,5.0,-9999,N/A,29.96,5.0,North,3.5,-,N/A,Snow,Light Snow,10,2012-12-30 15:25:00
8:45 AM,3.2,-9999,N/A,29.96,9.0,NE,3.5,-,N/A,,Overcast,40,2012-12-30 15:45:00
9:05 AM,5.0,-9999,N/A,29.96,9.0,Calm,Calm,-,N/A,,Overcast,0,2012-12-30 16:05:00
9:25 AM,5.0,-9999,N/A,29.97,10.0,Calm,Calm,-,N/A,,Overcast,0,2012-12-30 16:25:00
9:45 AM,6.8,-9999,N/A,29.97,10.0,Calm,Calm,-,N/A,,Overcast,0,2012-12-30 16:45:00
10:05 AM,6.8,-9999,N/A,29.98,10.0,Calm,Calm,-,N/A,,Overcast,0,2012-12-30 17:05:00
10:25 AM,8.6,-9999,N/A,29.98,10.0,Calm,Calm,-,N/A,Snow,Light Snow,0,2012-12-30 17:25:00
10:45 AM,8.6,-9999,N/A,29.98,10.0,Calm,Calm,-,N/A,Snow,Light Snow,0,2012-12-30 17:45:00
11:05 AM,8.6,-9999,N/A,29.98,10.0,ENE,3.5,-,N/A,,Overcast,60,2012-12-30 18:05:00
11:25 AM,10.4,-9999,N/A,29.97,10.0,Calm,Calm,-,N/A,,Overcast,0,2012-12-30 18:25:00
11:45 AM,10.4,-9999,N/A,29.97,10.0,Calm,Calm,-,N/A,,Overcast,0,2012-12-30 18:45:00
12:05 PM,12.2,-9999,N/A,29.96,10.0,Calm,Calm,-,N/A,,Overcast,0,2012-12-30 19:05:00
12:25 PM,14.0,-9999,N/A,29.95,10.0,Calm,Calm,-,N/A,,Overcast,0,2012-12-30 19:25:00
12:45 PM,14.0,-9999,N/A,29.95,10.0,Calm,Calm,-,N/A,,Overcast,0,2012-12-30 19:45:00
1:05 PM,14.0,-9999,N/A,29.94,10.0,Calm,Calm,-,N/A,,Overcast,0,2012-12-30 20:05:00
1:25 PM,15.8,-9999,N/A,29.94,10.0,Calm,Calm,-,N/A,,Overcast,0,2012-12-30 20:25:00
1:45 PM,15.8,-9999,N/A,29.93,10.0,Calm,Calm,-,N/A,,Mostly Cloudy,0,2012-12-30 20:45:00
2:05 PM,15.8,-9999,N/A,29.94,10.0,Calm,Calm,-,N/A,,Mostly Cloudy,0,2012-12-30 21:05:00
2:25 PM,17.6,-9999,N/A,29.93,10.0,Calm,Calm,-,N/A,,Overcast,0,2012-12-30 21:25:00
2:45 PM,17.6,-9999,N/A,29.94,10.0,Calm,Calm,-,N/A,,Overcast,0,2012-12-30 21:45:00
3:05 PM,19.4,-9999,N/A,29.94,10.0,WSW,6.9,-,N/A,,Mostly Cloudy,240,2012-12-30 22:05:00
3:25 PM,19.4,-9999,N/A,29.95,10.0,WSW,4.6,-,N/A,,Mostly Cloudy,250,2012-12-30 22:25:00
3:45 PM,19.4,-9999,N/A,29.95,10.0,SW,5.8,-,N/A,,Mostly Cloudy,220,2012-12-30 22:45:00
4:05 PM,17.6,-9999,N/A,29.95,10.0,WSW,5.8,-,N/A,,Mostly Cloudy,240,2012-12-30 23:05:00
4:25 PM,15.8,-9999,N/A,29.95,10.0,SW,3.5,-,N/A,,Scattered Clouds,230,2012-12-30 23:25:00
4:45 PM,14.0,-9999,N/A,29.95,10.0,SW,3.5,-,N/A,,Scattered Clouds,230,2012-12-30 23:45:00
5:05 PM,10.4,-9999,N/A,29.95,10.0,Calm,Calm,-,N/A,,Mostly Cloudy,0,2012-12-31 00:05:00
5:25 PM,6.8,-9999,N/A,29.96,10.0,Calm,Calm,-,N/A,,Mostly Cloudy,0,2012-12-31 00:25:00
5:45 PM,5.0,-9999,N/A,29.96,10.0,Calm,Calm,-,N/A,,Partly Cloudy,0,2012-12-31 00:45:00
6:05 PM,1.4,-9999,N/A,29.96,10.0,Calm,Calm,-,N/A,,Clear,0,2012-12-31 01:05:00
6:25 PM,-0.4,-9999,N/A,29.96,10.0,Calm,Calm,-,N/A,,Clear,0,2012-12-31 01:25:00
6:45 PM,-0.4,-9999,N/A,29.96,10.0,Calm,Calm,-,N/A,,Clear,0,2012-12-31 01:45:00
7:05 PM,-2.2,-9999,N/A,29.96,10.0,Calm,Calm,-,N/A,,Clear,0,2012-12-31 02:05:00
7:25 PM,-4.0,-9999,N/A,29.97,10.0,Calm,Calm,-,N/A,,Clear,0,2012-12-31 02:25:00
7:45 PM,-5.8,-9999,N/A,29.97,10.0,Calm,Calm,-,N/A,,Clear,0,2012-12-31 02:45:00
8:05 PM,-7.6,-9999,N/A,29.97,10.0,SSW,3.5,-,N/A,,Clear,200,2012-12-31 03:05:00
8:25 PM,-7.6,-9999,N/A,29.97,10.0,Calm,Calm,-,N/A,,Clear,0,2012-12-31 03:25:00
8:45 PM,-7.6,-9999,N/A,29.97,10.0,Calm,Calm,-,N/A,,Clear,0,2012-12-31 03:45:00
9:05 PM,-9.4,-9999,N/A,29.97,10.0,Calm,Calm,-,N/A,,Clear,0,2012-12-31 04:05:00
9:25 PM,-11.2,-9999,N/A,29.96,10.0,SSW,3.5,-,N/A,,Clear,210,2012-12-31 04:25:00
9:45 PM,-11.2,-9999,N/A,29.97,10.0,Calm,Calm,-,N/A,,Clear,0,2012-12-31 04:45:00
10:05 PM,-11.2,-9999,N/A,29.97,10.0,Calm,Calm,-,N/A,,Scattered Clouds,0,2012-12-31 05:05:00
10:25 PM,-13.0,-9999,N/A,29.97,10.0,Calm,Calm,-,N/A,,Partly Cloudy,0,2012-12-31 05:25:00
10:45 PM,-13.0,-9999,N/A,29.97,10.0,South,3.5,-,N/A,Snow,Light Snow,180,2012-12-31 05:45:00
11:05 PM,-9.4,-9999,N/A,29.98,6.0,Calm,Calm,-,N/A,Snow,Light Snow,0,2012-12-31 06:05:00
11:25 PM,-9.4,-9999,N/A,29.98,9.0,Calm,Calm,-,N/A,Snow,Light Snow,0,2012-12-31 06:25:00
11:45 PM,-7.6,-9999,N/A,29.98,9.0,SSW,3.5,-,N/A,Snow,Light Snow,200,2012-12-31 06:45:00